STARLINK-5874, 56353

Orbit data source: Space-Track

STARLINK-5874, 56353 is a payload satellite owned by SpaceX/Seattle (US) in SSO that was launched on Thu, 27 Apr 2023 UTC via an FALCON 9 launch vehicle from the Air Force Western Test Range (AFWTR). Payload-class satellites include a variety of spacecraft equipped with specific instruments for various scientific and technological missions. These include communications satellites like Starlink; space stations such as the ISS; scientific satellites like the Hubble; Earth observation satellites from companies like Planet Labs, Umbra, and HawkEye 360; GPS; miniature CubeSats for education and research; and military/defense satellites.

Loading next visibility...
Identifier
56353, 2023-058AN
Orbit
SSO
Country
Flag of USUS
Related business
Manufacturer
SpaceX/Seattle
Mission
Operational Commercial Communications
Bus & Motor
STARLINK, Unknown motor
Mass
300 kg wet, ~260 kg dry
Launch date (UTC)
2023-04-27 (3 years ago)
Launch vehicle
FALCON 9
Launch site
Air Force Western Test Range (AFWTR)
Object type
Payload
Rocket body
Debris
Shape & HBR
Box + 1 Pan, 10.1 m
Radar Cross Section
11.087 m², Large (>1 m²)

Expand to show TLE details & history
Last TLE update: 2 days ago

TLE from 2 days ago
0 STARLINK-5874
1 56353U 23058AN  26171.44868118  .00003986  00000-0  27979-3 0  9990
2 56353  97.3356 170.2699 0002838  75.3713 284.7829 15.05688439173581
Epoch: 2026-06-20T10:46Z
TLE epoch observation values (Epoch: 2026-06-20T10:46:06.053Z)
Latitude
-0.00006°
Longitude
100.08153°
Altitude
551.965 km
Speed
7.586 km/s
True Right ascension
11h 21m 04s
True Declination
0° 00' 00"
Sunlit
Object was in daylight at epoch
Visualization orbit readout
Latitude
Unknown
Longitude
Unknown
Altitude
Unknown
Speed
Unknown
Apparent Right ascension
Unknown
Apparent Declination
Unknown
Sunlit
N/A
Visualization observer readout
Local Sidereal Time
21:28:43
Azimuth
Unknown
Elevation
Unknown
Doppler factor
Unknown
Orbital elements
Apogee altitude
548.34 km
Perigee altitude
544.41 km
Semi-major axis
6,924.512 km
Eccentricity
0.00028
Inclination
97.3356°
RAAN
170.2699°
Arg. of periapsis
75.3713°
True anomaly
284.75145°
Mean anomaly
284.7829°
Eccentric anomaly
284.76718°
Mean motion
3.76669 °/min
Orbital period
95.57 mins
BSTAR
0.00027979
Loading maneuver chart data...
Computing Atmospheric mass density...
Loading historical data...
Loading historical data...
Loading historical data...
Loading historical data...
Loading historical data...
Loading historical data...
Loading historical data...

Documentation

Showing up to 5 results
|